This is the latest recevied weather packets stored in our database for station/object VE7GEL. If no packets are shown the sender has not sent any weather packets the latest 10 day(s).
| Time | Temp. | Humidity | Pressure | Rain* | Wind** | Luminosity | Snow |
|---|---|---|---|---|---|---|---|
| 1777792503 | 16.11° C | 75% | 1014.4 hPa | 0 mm | - | 0 W/m² | - |
| 1777792456 | 16.11° C | 75% | 1014.1 hPa | 0 mm | - | 0 W/m² | - |
| 1777791553 | 16.11° C | 77% | 1014.1 hPa | 0 mm | - | 0 W/m² | - |
| 1777790702 | 16.67° C | 72% | 1014.4 hPa | 0 mm | - | 0 W/m² | - |
| 1777790654 | 16.67° C | 72% | 1014.1 hPa | 0 mm | - | 0 W/m² | - |
| 1777789755 | 17.22° C | 70% | 1014.1 hPa | 0 mm | - | 0 W/m² | - |
| 1777788902 | 17.22° C | 67% | 1014.4 hPa | 0 mm | - | 0 W/m² | - |
| 1777788853 | 17.22° C | 67% | 1014.1 hPa | 0 mm | - | 0 W/m² | - |
| 1777788002 | 17.22° C | 65% | 1014.4 hPa | 0 mm | - | 0 W/m² | - |
| 1777787951 | 17.22° C | 65% | 1014.1 hPa | 0 mm | - | 0 W/m² | - |
| 1777787051 | 17.22° C | 65% | 1014.1 hPa | 0 mm | - | 0 W/m² | - |
| 1777786152 | 17.78° C | 64% | 1014.2 hPa | 0 mm | - | 0 W/m² | - |
| 1777785302 | 18.89° C | 55% | 1014.5 hPa | 0 mm | - | 0 W/m² | - |
| 1777785251 | 18.89° C | 55% | 1014.2 hPa | 0 mm | - | 0 W/m² | - |
| 1777784352 | 18.89° C | 58% | 1014.2 hPa | 0 mm | - | 0 W/m² | - |
| 1777783502 | 19.44° C | 54% | 1014.4 hPa | 0 mm | - | 0 W/m² | - |
| 1777783450 | 19.44° C | 53% | 1014 hPa | 0 mm | - | 0 W/m² | - |
| 1777782602 | 19.44° C | 48% | 1014.3 hPa | 0 mm | - | 0 W/m² | - |
| 1777782531 | 19.44° C | 48% | 1014 hPa | 0 mm | - | 0 W/m² | - |
| 1777781633 | 19.44° C | 47% | 1014 hPa | 0 mm | - | 0 W/m² | - |
| 1777780733 | 19.44° C | 48% | 1013.8 hPa | 0 mm | - | 0 W/m² | - |
| 1777779902 | 19.44° C | 50% | 1013.9 hPa | 0 mm | - | 0 W/m² | - |
| 1777779826 | 19.44° C | 50% | 1013.6 hPa | 0 mm | - | 0 W/m² | - |
| 1777778928 | 18.89° C | 52% | 1013.5 hPa | 0 mm | - | 2 W/m² | - |
| 1777778102 | 18.89° C | 52% | 1013.7 hPa | 0 mm | - | 6 W/m² | - |
* Rain latest hour (hover to see other rain measurements)
** Current wind speed in m/s (hover to see current wind gust speed)